Cloud_Cover
83 85 68 12 30 98 73 11 15 24 5 5 5 5 5 5 100 100 54 5 6 9 6 83 89 100 100 100 100 100 100 100 99 88 100 100 100 100 81 100 100 100 100
46 77 88 100 100 94 82 100 62 65 99 8 5 5 5 5 22 100 78 5 5 5 8 66 67 100 100 100 91 100 95 98 100 100 100 97 96 100 100 100 100 96 86
5 41 70 90 83 96 100 100 70 94 100 100 61 9 5 4 5 96 69 5 5 5 5 29 75 100 95 100 99 99 92 84 99 100 97 100 100 99 100 100 100 95 65
48 34 46 68 56 51 69 100 100 100 100 100 100 100 7 5 5 89 26 5 5 5 5 5 11 42 100 100 81 98 79 42 97 100 100 100 100 61 100 69 81 100 97
32 10 57 33 36 83 70 99 100 100 100 100 100 100 99 5 5 98 100 6 5 5 5 5 18 6 96 96 100 56 98 99 73 100 98 100 100 100 95 89 100 99 76
45 59 7 5 62 46 59 62 95 100 100 100 100 100 100 48 5 92 100 16 15 5 5 5 5 29 99 100 100 100 60 90 100 100 100 100 100 100 100 100 100 38 100
5 5 5 5 5 5 5 54 69 98 100 100 100 100 100 99 5 7 85 40 73 65 5 61 83 85 100 100 100 100 100 57 62 99 100 98 91 94 100 100 100 83 31
64 14 5 5 5 5 5 5 5 18 58 99 100 100 100 100 6 5 12 84 96 75 5 100 100 100 100 100 99 100 100 100 48 64 90 68 80 100 91 100 100 100 71
70 37 33 49 5 5 5 5 5 5 28 30 94 100 100 100 76 6 7 76 100 84 5 100 100 100 100 100 100 74 87 54 56 11 70 93 99 58 80 94 92 100 100
100 95 73 70 6 5 5 5 5 5 5 69 94 100 100 100 100 32 5 24 86 55 5 67 100 93 100 100 88 89 100 96 46 14 100 100 100 100 8 78 100 100 100
84 91 99 12 6 5 5 5 5 5 5 53 70 100 100 100 100 68 5 5 5 5 5 9 87 62 88 61 33 76 74 34 5 28 79 100 100 100 100 97 100 100 100
91 53 60 91 66 5 5 5 5 5 5 5 5 18 63 95 100 65 6 5 5 1 5 4 5 5 66 31 53 5 5 3 5 5 5 14 76 100 100 73 87 100 100
76 100 47 7 25 45 11 6 5 5 5 5 5 5 5 32 64 39 5 4 5 2 5 2 2 5 5 6 72 70 0 4 5 5 5 5 5 5 11 94 100 100 100
79 100 100 99 58 60 92 30 5 5 5 5 5 5 5 5 5 41 26 16 8 5 13 3 0 0 5 5 5 5 3 0 0 5 5 5 5 5 5 10 82 98 100
68 96 100 100 100 90 81 62 54 8 5 8 5 27 59 5 5 12 23 5 5 6 11 5 5 0 1 5 5 5 5 0 0 0 4 5 5 5 5 5 5 6 6
87 76 91 100 100 100 99 62 90 72 6 5 5 5 5 5 6 14 5 7 5 5 5 5 5 5 5 5 5 5 5 5 0 0 0 0 1 3 1 3 5 5 75
86 100 97 99 100 100 100 100 86 99 98 28 6 16 5 5 10 5 5 4 5 2 5 5 5 5 5 5 5 5 12 5 5 1 5 4 5 5 4 0 1 5 82
100 100 100 80 100 100 100 100 100 54 96 98 57 9 6 69 51 5 5 5 5 5 5 5 5 5 8 5 5 5 5 6 5 3 0 2 35 69 28 5 5 5 5
100 98 99 93 91 100 100 100 100 100 100 100 33 16 24 17 11 5 6 5 5 5 10 9 62 13 17 6 6 8 5 5 5 5 5 5 5 15 86 94 17 5 5
100 97 90 84 100 100 100 100 100 100 100 100 98 45 57 70 46 22 5 29 13 29 52 53 35 17 11 25 20 9 5 5 5 5 5 5 5 5 5 36 100 97 44
100 100 100 100 100 72 90 100 100 100 100 100 100 99 60 56 23 24 24 85 100 100 100 99 85 27 18 42 22 10 5 9 38 33 5 5 5 5 4 5 3 48 98
100 100 100 100 100 74 75 95 100 100 100 100 100 100 100 100 100 92 100 100 100 100 100 100 63 37 31 46 54 39 56 65 100 100 14 5 5 0 0 0 0 0 25
100 100 100 100 100 88 57 100 100 100 100 100 100 100 100 100 100 100 100 100 100 100 100 100 87 79 67 70 79 100 100 100 100 100 7 5 5 5 5 4 2 0 3
100 100 100 100 100 100 100 99 100 100 100 100 100 100 100 100 100 100 100 100 100 100 100 100 100 100 100 100 100 100 100 100 91 14 5 5 5 5 5 6 5 5 5
100 100 100 100 100 100 100 100 100 100 100 100 100 100 100 100 100 100 100 100 100 100 100 100 100 100 100 100 100 100 100 68 29 5 5 5 5 5 5 5 34 7 5
100 100 100 100 100 100 100 100 100 100 100 100 100 100 100 100 100 100 100 100 100 100 100 100 100 100 100 100 100 100 100 100 10 5 5 5 5 5 5 5 5 5 5